sat.trackr.live / text

‹ back to catalog

STARLINK-5082

NORAD 54845 · 2022-177AB

PAYLOAD ACTIVE UNKNOWN

§ Identity

Operator
Country
US
Launch date
2022-12-28
Launch site
AFETR
Launch vehicle
Mass (kg)
RCS (m²)

Purposes: comms

External: N2YO · Heavens-Above · Gunter

§ Orbital elements

Epoch: 2026-09-20T22:34:52.473504Z

Period
94.27 min
Inclination
43.0020°
Eccentricity
0.0001028
Mean motion
15.27574192 rev/d
Perigee alt
482.4 km
Apogee alt
483.8 km
Semi-major
6,861.2 km
B*
4.4055e-5
RAAN
110.0445°
Arg perigee
261.8782°
Mean anomaly
98.1953°
Rev number
20,682

§ Raw data

STARLINK-50821 54845U 22177AB  26263.94088511  .00000950  00000+0  44055-4 0  99952 54845  43.0020 110.0445 0001028 261.8782  98.1953 15.27574192206823

JSON: /api/v1/satellites/54845 · /tle

For live sub-satellite position, see the globe view (requires WebGL).

§ Visibility from observer

Set your observer location to see the next 7 days of passes ≥ 10°. The values pass through the URL so the page stays shareable.

No JS? Fill the form by hand. The geolocation button needs JavaScript.